Year,Month,Day,Hour,Minute,Value (Times are PST for insolation in W/m^2)
2018,10,01,00,00,0.00
2018,10,01,00,01,0.00
2018,10,01,00,02,0.00
2018,10,01,00,03,0.00
2018,10,01,00,04,0.00
2018,10,01,00,05,0.00
2018,10,01,00,06,0.00
2018,10,01,00,07,0.00
2018,10,01,00,08,0.00
2018,10,01,00,09,0.00
2018,10,01,00,10,0.00
2018,10,01,00,11,0.00
2018,10,01,00,12,0.00
2018,10,01,00,13,0.00
2018,10,01,00,14,0.00
2018,10,01,00,15,0.00
2018,10,01,00,16,0.00
2018,10,01,00,17,0.00
2018,10,01,00,18,0.00
2018,10,01,00,19,0.00
2018,10,01,00,20,0.00
2018,10,01,00,21,0.00
2018,10,01,00,22,0.00
2018,10,01,00,23,0.00
2018,10,01,00,24,0.00
2018,10,01,00,25,0.00
2018,10,01,00,26,0.00
2018,10,01,00,27,0.00
2018,10,01,00,28,0.00
2018,10,01,00,29,0.00
2018,10,01,00,30,0.00
2018,10,01,00,31,0.00
2018,10,01,00,32,0.00
2018,10,01,00,33,0.00
2018,10,01,00,34,0.00
2018,10,01,00,35,0.00
2018,10,01,00,36,0.00
2018,10,01,00,37,0.00
2018,10,01,00,38,0.00
2018,10,01,00,39,0.00
2018,10,01,00,40,0.00
2018,10,01,00,41,0.00
2018,10,01,00,42,0.00
2018,10,01,00,43,0.00
2018,10,01,00,44,0.00
2018,10,01,00,45,0.00
2018,10,01,00,46,0.00
2018,10,01,00,47,0.00
2018,10,01,00,48,0.00
2018,10,01,00,49,0.00
2018,10,01,00,50,0.00
2018,10,01,00,51,0.00
2018,10,01,00,52,0.00
2018,10,01,00,53,0.00
2018,10,01,00,54,0.00
2018,10,01,00,55,0.00
2018,10,01,00,56,0.00
2018,10,01,00,57,0.00
2018,10,01,00,58,0.00
2018,10,01,00,59,0.00
2018,10,01,01,00,0.00
2018,10,01,01,01,0.00
2018,10,01,01,02,0.00
2018,10,01,01,03,0.00
2018,10,01,01,04,0.00
2018,10,01,01,05,0.00
2018,10,01,01,06,0.00
2018,10,01,01,07,0.00
2018,10,01,01,08,0.00
2018,10,01,01,09,0.00
2018,10,01,01,10,0.00
2018,10,01,01,11,0.00
2018,10,01,01,12,0.00
2018,10,01,01,13,0.00
2018,10,01,01,14,0.00
2018,10,01,01,15,0.00
2018,10,01,01,16,0.00
2018,10,01,01,17,0.00
2018,10,01,01,18,0.00
2018,10,01,01,19,0.00
2018,10,01,01,20,0.00
2018,10,01,01,21,0.00
2018,10,01,01,22,0.00
2018,10,01,01,23,0.00
2018,10,01,01,24,0.00
2018,10,01,01,25,0.00
2018,10,01,01,26,0.00
2018,10,01,01,27,0.00
2018,10,01,01,28,0.00
2018,10,01,01,29,0.00
2018,10,01,01,30,0.00
2018,10,01,01,31,0.00
2018,10,01,01,32,0.00
2018,10,01,01,33,0.00
2018,10,01,01,34,0.00
2018,10,01,01,35,0.00
2018,10,01,01,36,0.00
2018,10,01,01,37,0.00
2018,10,01,01,38,0.00
2018,10,01,01,39,0.00
2018,10,01,01,40,0.00
2018,10,01,01,41,0.00
2018,10,01,01,42,0.00
2018,10,01,01,43,0.00
2018,10,01,01,44,0.00
2018,10,01,01,45,0.00
2018,10,01,01,46,0.00
2018,10,01,01,47,0.00
2018,10,01,01,48,0.00
2018,10,01,01,49,0.00
2018,10,01,01,50,0.00
2018,10,01,01,51,0.00
2018,10,01,01,52,0.00
2018,10,01,01,53,0.00
2018,10,01,01,54,0.00
2018,10,01,01,55,0.00
2018,10,01,01,56,0.00
2018,10,01,01,57,0.00
2018,10,01,01,58,0.00
2018,10,01,01,59,0.00
2018,10,01,02,00,0.00
2018,10,01,02,01,0.00
2018,10,01,02,02,0.00
2018,10,01,02,03,0.00
2018,10,01,02,04,0.00
2018,10,01,02,05,0.00
2018,10,01,02,06,0.00
2018,10,01,02,07,0.00
2018,10,01,02,08,0.00
2018,10,01,02,09,0.00
2018,10,01,02,10,0.00
2018,10,01,02,11,0.00
2018,10,01,02,12,0.00
2018,10,01,02,13,0.00
2018,10,01,02,14,0.00
2018,10,01,02,15,0.00
2018,10,01,02,16,0.00
2018,10,01,02,17,0.00
2018,10,01,02,18,0.00
2018,10,01,02,19,0.00
2018,10,01,02,20,0.00
2018,10,01,02,21,0.00
2018,10,01,02,22,0.00
2018,10,01,02,23,0.00
2018,10,01,02,24,0.00
2018,10,01,02,25,0.00
2018,10,01,02,26,0.00
2018,10,01,02,27,0.00
2018,10,01,02,28,0.00
2018,10,01,02,29,0.00
2018,10,01,02,30,0.00
2018,10,01,02,31,0.00
2018,10,01,02,32,0.00
2018,10,01,02,33,0.00
2018,10,01,02,34,0.00
2018,10,01,02,35,0.00
2018,10,01,02,36,0.00
2018,10,01,02,37,0.00
2018,10,01,02,38,0.00
2018,10,01,02,39,0.00
2018,10,01,02,40,0.00
2018,10,01,02,41,0.00
2018,10,01,02,42,0.00
2018,10,01,02,43,0.00
2018,10,01,02,44,0.00
2018,10,01,02,45,0.00
2018,10,01,02,46,0.00
2018,10,01,02,47,0.00
2018,10,01,02,48,0.00
2018,10,01,02,49,0.00
2018,10,01,02,50,0.00
2018,10,01,02,51,0.00
2018,10,01,02,52,0.00
2018,10,01,02,53,0.00
2018,10,01,02,54,0.00
2018,10,01,02,55,0.00
2018,10,01,02,56,0.00
2018,10,01,02,57,0.00
2018,10,01,02,58,0.00
2018,10,01,02,59,0.00
2018,10,01,03,00,0.00
2018,10,01,03,01,0.00
2018,10,01,03,02,0.00
2018,10,01,03,03,0.00
2018,10,01,03,04,0.00
2018,10,01,03,05,0.00
2018,10,01,03,06,0.00
2018,10,01,03,07,0.00
2018,10,01,03,08,0.00
2018,10,01,03,09,0.00
2018,10,01,03,10,0.00
2018,10,01,03,11,0.00
2018,10,01,03,12,0.00
2018,10,01,03,13,0.00
2018,10,01,03,14,0.00
2018,10,01,03,15,0.00
2018,10,01,03,16,0.00
2018,10,01,03,17,0.00
2018,10,01,03,18,0.00
2018,10,01,03,19,0.00
2018,10,01,03,20,0.00
2018,10,01,03,21,0.00
2018,10,01,03,22,0.00
2018,10,01,03,23,0.00
2018,10,01,03,24,0.00
2018,10,01,03,25,0.00
2018,10,01,03,26,0.00
2018,10,01,03,27,0.00
2018,10,01,03,28,0.00
2018,10,01,03,29,0.00
2018,10,01,03,30,0.00
2018,10,01,03,31,0.00
2018,10,01,03,32,0.00
2018,10,01,03,33,0.00
2018,10,01,03,34,0.00
2018,10,01,03,35,0.00
2018,10,01,03,36,0.00
2018,10,01,03,37,0.00
2018,10,01,03,38,0.00
2018,10,01,03,39,0.00
2018,10,01,03,40,0.00
2018,10,01,03,41,0.00
2018,10,01,03,42,0.00
2018,10,01,03,43,0.00
2018,10,01,03,44,0.00
2018,10,01,03,45,0.00
2018,10,01,03,46,0.00
2018,10,01,03,47,0.00
2018,10,01,03,48,0.00
2018,10,01,03,49,0.00
2018,10,01,03,50,0.00
2018,10,01,03,51,0.00
2018,10,01,03,52,0.00
2018,10,01,03,53,0.00
2018,10,01,03,54,0.00
2018,10,01,03,55,0.00
2018,10,01,03,56,0.00
2018,10,01,03,57,0.00
2018,10,01,03,58,0.00
2018,10,01,03,59,0.00
2018,10,01,04,00,0.00
2018,10,01,04,01,0.00
2018,10,01,04,02,0.00
2018,10,01,04,03,0.00
2018,10,01,04,04,0.00
2018,10,01,04,05,0.00
2018,10,01,04,06,0.00
2018,10,01,04,07,0.00
2018,10,01,04,08,0.00
2018,10,01,04,09,0.00
2018,10,01,04,10,0.00
2018,10,01,04,11,0.00
2018,10,01,04,12,0.00
2018,10,01,04,13,0.00
2018,10,01,04,14,0.00
2018,10,01,04,15,0.00
2018,10,01,04,16,0.00
2018,10,01,04,17,0.00
2018,10,01,04,18,0.00
2018,10,01,04,19,0.00
2018,10,01,04,20,0.00
2018,10,01,04,21,0.00
2018,10,01,04,22,0.00
2018,10,01,04,23,0.00
2018,10,01,04,24,0.00
2018,10,01,04,25,0.00
2018,10,01,04,26,0.00
2018,10,01,04,27,0.00
2018,10,01,04,28,0.00
2018,10,01,04,29,0.00
2018,10,01,04,30,0.00
2018,10,01,04,31,0.00
2018,10,01,04,32,0.00
2018,10,01,04,33,0.00
2018,10,01,04,34,0.00
2018,10,01,04,35,0.00
2018,10,01,04,36,0.00
2018,10,01,04,37,0.00
2018,10,01,04,38,0.00
2018,10,01,04,39,0.00
2018,10,01,04,40,0.00
2018,10,01,04,41,0.00
2018,10,01,04,42,0.00
2018,10,01,04,43,0.00
2018,10,01,04,44,0.00
2018,10,01,04,45,0.00
2018,10,01,04,46,0.00
2018,10,01,04,47,0.00
2018,10,01,04,48,0.00
2018,10,01,04,49,0.00
2018,10,01,04,50,0.00
2018,10,01,04,51,0.00
2018,10,01,04,52,0.00
2018,10,01,04,53,0.00
2018,10,01,04,54,0.00
2018,10,01,04,55,0.00
2018,10,01,04,56,0.00
2018,10,01,04,57,0.00
2018,10,01,04,58,0.00
2018,10,01,04,59,0.00
2018,10,01,05,00,0.00
2018,10,01,05,01,0.00
2018,10,01,05,02,0.00
2018,10,01,05,03,0.00
2018,10,01,05,04,0.00
2018,10,01,05,05,0.00
2018,10,01,05,06,0.00
2018,10,01,05,07,0.00
2018,10,01,05,08,0.00
2018,10,01,05,09,0.00
2018,10,01,05,10,0.00
2018,10,01,05,11,0.00
2018,10,01,05,12,0.00
2018,10,01,05,13,0.00
2018,10,01,05,14,0.00
2018,10,01,05,15,0.00
2018,10,01,05,16,0.00
2018,10,01,05,17,0.00
2018,10,01,05,18,0.00
2018,10,01,05,19,0.00
2018,10,01,05,20,0.00
2018,10,01,05,21,0.00
2018,10,01,05,22,0.00
2018,10,01,05,23,0.00
2018,10,01,05,24,0.00
2018,10,01,05,25,0.00
2018,10,01,05,26,0.00
2018,10,01,05,27,0.00
2018,10,01,05,28,0.00
2018,10,01,05,29,0.00
2018,10,01,05,30,0.00
2018,10,01,05,31,0.00
2018,10,01,05,32,0.00
2018,10,01,05,33,0.00
2018,10,01,05,34,0.00
2018,10,01,05,35,0.00
2018,10,01,05,36,0.00
2018,10,01,05,37,0.00
2018,10,01,05,38,0.00
2018,10,01,05,39,0.00
2018,10,01,05,40,0.00
2018,10,01,05,41,0.00
2018,10,01,05,42,0.00
2018,10,01,05,43,0.00
2018,10,01,05,44,0.00
2018,10,01,05,45,0.00
2018,10,01,05,46,0.00
2018,10,01,05,47,0.00
2018,10,01,05,48,0.00
2018,10,01,05,49,0.00
2018,10,01,05,50,0.00
2018,10,01,05,51,0.00
2018,10,01,05,52,0.00
2018,10,01,05,53,0.00
2018,10,01,05,54,0.00
2018,10,01,05,55,0.00
2018,10,01,05,56,0.00
2018,10,01,05,57,0.00
2018,10,01,05,58,0.00
2018,10,01,05,59,0.00
2018,10,01,06,00,0.00
2018,10,01,06,01,0.00
2018,10,01,06,02,0.00
2018,10,01,06,03,0.00
2018,10,01,06,04,0.00
2018,10,01,06,05,0.00
2018,10,01,06,06,0.00
2018,10,01,06,07,0.00
2018,10,01,06,08,0.00
2018,10,01,06,09,0.00
2018,10,01,06,10,0.00
2018,10,01,06,11,0.00
2018,10,01,06,12,0.00
2018,10,01,06,13,0.00
2018,10,01,06,14,0.00
2018,10,01,06,15,0.00
2018,10,01,06,16,0.00
2018,10,01,06,17,0.00
2018,10,01,06,18,0.00
2018,10,01,06,19,0.00
2018,10,01,06,20,0.00
2018,10,01,06,21,0.00
2018,10,01,06,22,0.00
2018,10,01,06,23,0.00
2018,10,01,06,24,0.00
2018,10,01,06,25,0.00
2018,10,01,06,26,0.00
2018,10,01,06,27,0.00
2018,10,01,06,28,0.00
2018,10,01,06,29,0.00
2018,10,01,06,30,0.00
2018,10,01,06,31,0.00
2018,10,01,06,32,0.00
2018,10,01,06,33,0.00
2018,10,01,06,34,0.00
2018,10,01,06,35,0.00
2018,10,01,06,36,0.00
2018,10,01,06,37,0.00
2018,10,01,06,38,0.00
2018,10,01,06,39,0.00
2018,10,01,06,40,0.00
2018,10,01,06,41,0.00
2018,10,01,06,42,0.00
2018,10,01,06,43,0.00
2018,10,01,06,44,0.00
2018,10,01,06,45,0.00
2018,10,01,06,46,0.00
2018,10,01,06,47,0.00
2018,10,01,06,48,0.00
2018,10,01,06,49,0.00
2018,10,01,06,50,0.00
2018,10,01,06,51,0.00
2018,10,01,06,52,0.00
2018,10,01,06,53,0.00
2018,10,01,06,54,0.00
2018,10,01,06,55,0.00
2018,10,01,06,56,0.00
2018,10,01,06,57,0.00
2018,10,01,06,58,0.00
2018,10,01,06,59,0.00
2018,10,01,07,00,0.00
2018,10,01,07,01,0.00
2018,10,01,07,02,0.00
2018,10,01,07,03,0.00
2018,10,01,07,04,0.00
2018,10,01,07,05,0.00
2018,10,01,07,06,0.00
2018,10,01,07,07,0.00
2018,10,01,07,08,0.00
2018,10,01,07,09,0.00
2018,10,01,07,10,0.00
2018,10,01,07,11,0.00
2018,10,01,07,12,0.00
2018,10,01,07,13,0.00
2018,10,01,07,14,0.00
2018,10,01,07,15,0.00
2018,10,01,07,16,0.00
2018,10,01,07,17,0.00
2018,10,01,07,18,0.00
2018,10,01,07,19,0.00
2018,10,01,07,20,0.00
2018,10,01,07,21,0.00
2018,10,01,07,22,0.00
2018,10,01,07,23,0.00
2018,10,01,07,24,0.00
2018,10,01,07,25,0.00
2018,10,01,07,26,0.00
2018,10,01,07,27,0.00
2018,10,01,07,28,0.00
2018,10,01,07,29,0.00
2018,10,01,07,30,0.00
2018,10,01,07,31,0.00
2018,10,01,07,32,0.00
2018,10,01,07,33,0.00
2018,10,01,07,34,0.00
2018,10,01,07,35,0.00
2018,10,01,07,36,0.00
2018,10,01,07,37,3.30
2018,10,01,07,38,1.40
2018,10,01,07,39,0.00
2018,10,01,07,40,0.00
2018,10,01,07,41,1.70
2018,10,01,07,42,5.00
2018,10,01,07,43,5.00
2018,10,01,07,44,5.00
2018,10,01,07,45,5.00
2018,10,01,07,46,5.00
2018,10,01,07,47,5.00
2018,10,01,07,48,6.00
2018,10,01,07,49,7.00
2018,10,01,07,50,8.60
2018,10,01,07,51,8.80
2018,10,01,07,52,7.00
2018,10,01,07,53,7.00
2018,10,01,07,54,7.00
2018,10,01,07,55,7.00
2018,10,01,07,56,8.70
2018,10,01,07,57,11.10
2018,10,01,07,58,12.00
2018,10,01,07,59,12.00
2018,10,01,08,00,11.40
2018,10,01,08,01,9.50
2018,10,01,08,02,9.00
2018,10,01,08,03,11.00
2018,10,01,08,04,11.30
2018,10,01,08,05,11.50
2018,10,01,08,06,11.50
2018,10,01,08,07,12.00
2018,10,01,08,08,12.00
2018,10,01,08,09,12.00
2018,10,01,08,10,12.60
2018,10,01,08,11,14.00
2018,10,01,08,12,15.30
2018,10,01,08,13,18.10
2018,10,01,08,14,19.20
2018,10,01,08,15,21.40
2018,10,01,08,16,23.60
2018,10,01,08,17,26.40
2018,10,01,08,18,29.30
2018,10,01,08,19,30.00
2018,10,01,08,20,32.70
2018,10,01,08,21,33.00
2018,10,01,08,22,34.40
2018,10,01,08,23,37.00
2018,10,01,08,24,38.30
2018,10,01,08,25,35.80
2018,10,01,08,26,32.70
2018,10,01,08,27,27.60
2018,10,01,08,28,26.00
2018,10,01,08,29,27.00
2018,10,01,08,30,29.20
2018,10,01,08,31,30.00
2018,10,01,08,32,30.00
2018,10,01,08,33,30.00
2018,10,01,08,34,28.30
2018,10,01,08,35,24.20
2018,10,01,08,36,24.50
2018,10,01,08,37,27.50
2018,10,01,08,38,31.00
2018,10,01,08,39,25.00
2018,10,01,08,40,23.80
2018,10,01,08,41,21.50
2018,10,01,08,42,16.90
2018,10,01,08,43,14.30
2018,10,01,08,44,14.00
2018,10,01,08,45,13.40
2018,10,01,08,46,12.00
2018,10,01,08,47,13.20
2018,10,01,08,48,14.00
2018,10,01,08,49,13.90
2018,10,01,08,50,12.00
2018,10,01,08,51,13.00
2018,10,01,08,52,15.00
2018,10,01,08,53,12.80
2018,10,01,08,54,13.60
2018,10,01,08,55,16.00
2018,10,01,08,56,19.40
2018,10,01,08,57,21.70
2018,10,01,08,58,23.00
2018,10,01,08,59,21.70
2018,10,01,09,00,21.00
2018,10,01,09,01,24.80
2018,10,01,09,02,27.40
2018,10,01,09,03,24.30
2018,10,01,09,04,22.10
2018,10,01,09,05,19.70
2018,10,01,09,06,19.00
2018,10,01,09,07,19.00
2018,10,01,09,08,18.80
2018,10,01,09,09,18.00
2018,10,01,09,10,18.00
2018,10,01,09,11,16.70
2018,10,01,09,12,14.30
2018,10,01,09,13,13.80
2018,10,01,09,14,12.50
2018,10,01,09,15,14.00
2018,10,01,09,16,15.00
2018,10,01,09,17,16.00
2018,10,01,09,18,16.00
2018,10,01,09,19,18.10
2018,10,01,09,20,20.20
2018,10,01,09,21,24.30
2018,10,01,09,22,28.30
2018,10,01,09,23,30.00
2018,10,01,09,24,32.70
2018,10,01,09,25,37.00
2018,10,01,09,26,35.90
2018,10,01,09,27,33.00
2018,10,01,09,28,34.10
2018,10,01,09,29,33.50
2018,10,01,09,30,32.10
2018,10,01,09,31,31.70
2018,10,01,09,32,30.60
2018,10,01,09,33,32.00
2018,10,01,09,34,32.00
2018,10,01,09,35,32.00
2018,10,01,09,36,33.20
2018,10,01,09,37,43.00
2018,10,01,09,38,55.70
2018,10,01,09,39,57.10
2018,10,01,09,40,49.60
2018,10,01,09,41,46.20
2018,10,01,09,42,44.30
2018,10,01,09,43,48.80
2018,10,01,09,44,54.60
2018,10,01,09,45,55.00
2018,10,01,09,46,53.30
2018,10,01,09,47,51.40
2018,10,01,09,48,46.50
2018,10,01,09,49,39.00
2018,10,01,09,50,39.40
2018,10,01,09,51,40.00
2018,10,01,09,52,41.40
2018,10,01,09,53,46.10
2018,10,01,09,54,49.50
2018,10,01,09,55,55.00
2018,10,01,09,56,56.30
2018,10,01,09,57,50.50
2018,10,01,09,58,53.10
2018,10,01,09,59,56.00
2018,10,01,10,00,58.70
2018,10,01,10,01,63.00
2018,10,01,10,02,60.30
2018,10,01,10,03,57.20
2018,10,01,10,04,64.70
2018,10,01,10,05,80.80
2018,10,01,10,06,69.30
2018,10,01,10,07,56.00
2018,10,01,10,08,55.20
2018,10,01,10,09,54.00
2018,10,01,10,10,53.30
2018,10,01,10,11,53.90
2018,10,01,10,12,48.00
2018,10,01,10,13,45.80
2018,10,01,10,14,48.10
2018,10,01,10,15,51.10
2018,10,01,10,16,63.50
2018,10,01,10,17,75.20
2018,10,01,10,18,84.50
2018,10,01,10,19,97.00
2018,10,01,10,20,96.70
2018,10,01,10,21,92.60
2018,10,01,10,22,97.80
2018,10,01,10,23,91.30
2018,10,01,10,24,93.80
2018,10,01,10,25,85.00
2018,10,01,10,26,76.50
2018,10,01,10,27,70.70
2018,10,01,10,28,73.00
2018,10,01,10,29,70.50
2018,10,01,10,30,81.00
2018,10,01,10,31,81.00
2018,10,01,10,32,81.00
2018,10,01,10,33,113.70
2018,10,01,10,34,128.00
2018,10,01,10,35,129.60
2018,10,01,10,36,145.10
2018,10,01,10,37,151.70
2018,10,01,10,38,151.90
2018,10,01,10,39,158.60
2018,10,01,10,40,152.60
2018,10,01,10,41,151.00
2018,10,01,10,42,147.30
2018,10,01,10,43,131.90
2018,10,01,10,44,125.00
2018,10,01,10,45,122.20
2018,10,01,10,46,106.10
2018,10,01,10,47,106.90
2018,10,01,10,48,97.80
2018,10,01,10,49,100.00
2018,10,01,10,50,95.40
2018,10,01,10,51,88.10
2018,10,01,10,52,90.40
2018,10,01,10,53,90.10
2018,10,01,10,54,85.40
2018,10,01,10,55,84.00
2018,10,01,10,56,79.20
2018,10,01,10,57,76.00
2018,10,01,10,58,80.70
2018,10,01,10,59,81.90
2018,10,01,11,00,79.60
2018,10,01,11,01,87.20
2018,10,01,11,02,101.00
2018,10,01,11,03,112.40
2018,10,01,11,04,124.50
2018,10,01,11,05,131.60
2018,10,01,11,06,141.50
2018,10,01,11,07,137.40
2018,10,01,11,08,120.30
2018,10,01,11,09,114.30
2018,10,01,11,10,128.40
2018,10,01,11,11,142.70
2018,10,01,11,12,147.80
2018,10,01,11,13,141.10
2018,10,01,11,14,156.10
2018,10,01,11,15,165.00
2018,10,01,11,16,217.20
2018,10,01,11,17,230.80
2018,10,01,11,18,227.00
2018,10,01,11,19,227.00
2018,10,01,11,20,243.30
2018,10,01,11,21,260.20
2018,10,01,11,22,304.00
2018,10,01,11,23,292.60
2018,10,01,11,24,258.00
2018,10,01,11,25,251.00
2018,10,01,11,26,286.50
2018,10,01,11,27,307.00
2018,10,01,11,28,300.30
2018,10,01,11,29,248.20
2018,10,01,11,30,191.80
2018,10,01,11,31,177.00
2018,10,01,11,32,179.00
2018,10,01,11,33,164.40
2018,10,01,11,34,148.30
2018,10,01,11,35,132.80
2018,10,01,11,36,130.00
2018,10,01,11,37,130.00
2018,10,01,11,38,133.20
2018,10,01,11,39,133.60
2018,10,01,11,40,123.40
2018,10,01,11,41,115.00
2018,10,01,11,42,113.00
2018,10,01,11,43,107.50
2018,10,01,11,44,104.70
2018,10,01,11,45,110.50
2018,10,01,11,46,112.50
2018,10,01,11,47,121.00
2018,10,01,11,48,127.00
2018,10,01,11,49,123.20
2018,10,01,11,50,121.00
2018,10,01,11,51,123.30
2018,10,01,11,52,127.60
2018,10,01,11,53,132.60
2018,10,01,11,54,136.00
2018,10,01,11,55,135.00
2018,10,01,11,56,145.80
2018,10,01,11,57,148.00
2018,10,01,11,58,153.80
2018,10,01,11,59,169.50
2018,10,01,12,00,174.00
2018,10,01,12,01,186.50
2018,10,01,12,02,192.00
2018,10,01,12,03,192.00
2018,10,01,12,04,185.50
2018,10,01,12,05,165.30
2018,10,01,12,06,168.10
2018,10,01,12,07,181.90
2018,10,01,12,08,187.80
2018,10,01,12,09,181.30
2018,10,01,12,10,181.30
2018,10,01,12,11,178.00
2018,10,01,12,12,178.00
2018,10,01,12,13,193.50
2018,10,01,12,14,215.60
2018,10,01,12,15,198.30
2018,10,01,12,16,177.50
2018,10,01,12,17,153.20
2018,10,01,12,18,140.40
2018,10,01,12,19,136.50
2018,10,01,12,20,140.40
2018,10,01,12,21,139.80
2018,10,01,12,22,150.80
2018,10,01,12,23,166.10
2018,10,01,12,24,169.00
2018,10,01,12,25,160.60
2018,10,01,12,26,162.70
2018,10,01,12,27,168.50
2018,10,01,12,28,174.00
2018,10,01,12,29,181.70
2018,10,01,12,30,205.30
2018,10,01,12,31,225.00
2018,10,01,12,32,227.40
2018,10,01,12,33,210.10
2018,10,01,12,34,216.60
2018,10,01,12,35,223.20
2018,10,01,12,36,229.80
2018,10,01,12,37,240.60
2018,10,01,12,38,242.70
2018,10,01,12,39,242.70
2018,10,01,12,40,253.00
2018,10,01,12,41,233.90
2018,10,01,12,42,207.10
2018,10,01,12,43,188.80
2018,10,01,12,44,172.50
2018,10,01,12,45,160.10
2018,10,01,12,46,155.40
2018,10,01,12,47,158.30
2018,10,01,12,48,168.90
2018,10,01,12,49,175.00
2018,10,01,12,50,169.00
2018,10,01,12,51,166.90
2018,10,01,12,52,174.20
2018,10,01,12,53,208.70
2018,10,01,12,54,240.00
2018,10,01,12,55,268.30
2018,10,01,12,56,269.70
2018,10,01,12,57,317.30
2018,10,01,12,58,340.90
2018,10,01,12,59,349.60
2018,10,01,13,00,323.80
2018,10,01,13,01,292.50
2018,10,01,13,02,303.20
2018,10,01,13,03,336.00
2018,10,01,13,04,336.00
2018,10,01,13,05,344.70
2018,10,01,13,06,350.00
2018,10,01,13,07,351.10
2018,10,01,13,08,364.00
2018,10,01,13,09,366.60
2018,10,01,13,10,360.50
2018,10,01,13,11,329.10
2018,10,01,13,12,304.90
2018,10,01,13,13,264.70
2018,10,01,13,14,255.20
2018,10,01,13,15,264.10
2018,10,01,13,16,273.50
2018,10,01,13,17,279.00
2018,10,01,13,18,323.20
2018,10,01,13,19,308.10
2018,10,01,13,20,323.00
2018,10,01,13,21,366.20
2018,10,01,13,22,431.00
2018,10,01,13,23,431.00
2018,10,01,13,24,431.00
2018,10,01,13,25,401.50
2018,10,01,13,26,234.90
2018,10,01,13,27,218.50
2018,10,01,13,28,203.80
2018,10,01,13,29,205.00
2018,10,01,13,30,207.00
2018,10,01,13,31,243.70
2018,10,01,13,32,262.00
2018,10,01,13,33,311.00
2018,10,01,13,34,357.00
2018,10,01,13,35,345.70
2018,10,01,13,36,400.60
2018,10,01,13,37,438.80
2018,10,01,13,38,432.50
2018,10,01,13,39,400.00
2018,10,01,13,40,378.00
2018,10,01,13,41,378.00
2018,10,01,13,42,204.30
2018,10,01,13,43,184.30
2018,10,01,13,44,178.70
2018,10,01,13,45,171.00
2018,10,01,13,46,169.50
2018,10,01,13,47,171.00
2018,10,01,13,48,167.30
2018,10,01,13,49,164.90
2018,10,01,13,50,156.80
2018,10,01,13,51,155.00
2018,10,01,13,52,153.60
2018,10,01,13,53,149.20
2018,10,01,13,54,138.50
2018,10,01,13,55,127.30
2018,10,01,13,56,125.00
2018,10,01,13,57,128.80
2018,10,01,13,58,135.30
2018,10,01,13,59,137.00
2018,10,01,14,00,138.40
2018,10,01,14,01,133.90
2018,10,01,14,02,127.10
2018,10,01,14,03,121.40
2018,10,01,14,04,123.50
2018,10,01,14,05,139.20
2018,10,01,14,06,161.50
2018,10,01,14,07,174.00
2018,10,01,14,08,180.40
2018,10,01,14,09,186.40
2018,10,01,14,10,174.70
2018,10,01,14,11,165.00
2018,10,01,14,12,178.10
2018,10,01,14,13,207.00
2018,10,01,14,14,251.40
2018,10,01,14,15,312.70
2018,10,01,14,16,315.20
2018,10,01,14,17,290.40
2018,10,01,14,18,279.00
2018,10,01,14,19,248.80
2018,10,01,14,20,308.00
2018,10,01,14,21,380.00
2018,10,01,14,22,401.00
2018,10,01,14,23,465.80
2018,10,01,14,24,456.80
2018,10,01,14,25,408.00
2018,10,01,14,26,440.00
2018,10,01,14,27,421.90
2018,10,01,14,28,343.60
2018,10,01,14,29,362.90
2018,10,01,14,30,366.00
2018,10,01,14,31,366.00
2018,10,01,14,32,330.00
2018,10,01,14,33,294.00
2018,10,01,14,34,294.00
2018,10,01,14,35,295.70
2018,10,01,14,36,307.20
2018,10,01,14,37,311.00
2018,10,01,14,38,321.00
2018,10,01,14,39,294.00
2018,10,01,14,40,285.00
2018,10,01,14,41,277.90
2018,10,01,14,42,264.30
2018,10,01,14,43,253.40
2018,10,01,14,44,251.00
2018,10,01,14,45,262.10
2018,10,01,14,46,274.50
2018,10,01,14,47,277.90
2018,10,01,14,48,281.50
2018,10,01,14,49,300.40
2018,10,01,14,50,320.50
2018,10,01,14,51,313.90
2018,10,01,14,52,309.00
2018,10,01,14,53,319.30
2018,10,01,14,54,311.40
2018,10,01,14,55,298.10
2018,10,01,14,56,288.20
2018,10,01,14,57,285.00
2018,10,01,14,58,272.30
2018,10,01,14,59,256.70
2018,10,01,15,00,249.50
2018,10,01,15,01,246.00
2018,10,01,15,02,248.50
2018,10,01,15,03,255.40
2018,10,01,15,04,255.20
2018,10,01,15,05,259.50
2018,10,01,15,06,288.70
2018,10,01,15,07,317.60
2018,10,01,15,08,329.40
2018,10,01,15,09,334.20
2018,10,01,15,10,327.10
2018,10,01,15,11,334.50
2018,10,01,15,12,297.60
2018,10,01,15,13,286.30
2018,10,01,15,14,280.40
2018,10,01,15,15,267.40
2018,10,01,15,16,248.40
2018,10,01,15,17,247.80
2018,10,01,15,18,284.70
2018,10,01,15,19,332.90
2018,10,01,15,20,304.00
2018,10,01,15,21,278.40
2018,10,01,15,22,249.00
2018,10,01,15,23,242.60
2018,10,01,15,24,259.10
2018,10,01,15,25,285.60
2018,10,01,15,26,323.40
2018,10,01,15,27,290.00
2018,10,01,15,28,235.20
2018,10,01,15,29,213.20
2018,10,01,15,30,212.40
2018,10,01,15,31,218.70
2018,10,01,15,32,230.50
2018,10,01,15,33,218.30
2018,10,01,15,34,212.00
2018,10,01,15,35,207.00
2018,10,01,15,36,207.00
2018,10,01,15,37,214.30
2018,10,01,15,38,237.30
2018,10,01,15,39,228.90
2018,10,01,15,40,258.00
2018,10,01,15,41,258.00
2018,10,01,15,42,444.10
2018,10,01,15,43,664.00
2018,10,01,15,44,664.00
2018,10,01,15,45,646.90
2018,10,01,15,46,280.80
2018,10,01,15,47,298.50
2018,10,01,15,48,240.50
2018,10,01,15,49,199.00
2018,10,01,15,50,160.30
2018,10,01,15,51,150.70
2018,10,01,15,52,126.30
2018,10,01,15,53,121.90
2018,10,01,15,54,119.10
2018,10,01,15,55,119.20
2018,10,01,15,56,122.40
2018,10,01,15,57,125.00
2018,10,01,15,58,127.80
2018,10,01,15,59,132.40
2018,10,01,16,00,141.50
2018,10,01,16,01,149.40
2018,10,01,16,02,148.40
2018,10,01,16,03,141.60
2018,10,01,16,04,135.80
2018,10,01,16,05,130.40
2018,10,01,16,06,126.20
2018,10,01,16,07,122.10
2018,10,01,16,08,120.20
2018,10,01,16,09,120.00
2018,10,01,16,10,121.30
2018,10,01,16,11,127.00
2018,10,01,16,12,132.20
2018,10,01,16,13,136.10
2018,10,01,16,14,134.50
2018,10,01,16,15,129.10
2018,10,01,16,16,121.00
2018,10,01,16,17,112.80
2018,10,01,16,18,106.60
2018,10,01,16,19,105.00
2018,10,01,16,20,105.10
2018,10,01,16,21,107.00
2018,10,01,16,22,106.00
2018,10,01,16,23,102.30
2018,10,01,16,24,96.90
2018,10,01,16,25,91.90
2018,10,01,16,26,91.00
2018,10,01,16,27,91.00
2018,10,01,16,28,90.70
2018,10,01,16,29,89.00
2018,10,01,16,30,86.70
2018,10,01,16,31,83.60
2018,10,01,16,32,80.90
2018,10,01,16,33,78.40
2018,10,01,16,34,75.20
2018,10,01,16,35,73.00
2018,10,01,16,36,72.00
2018,10,01,16,37,73.50
2018,10,01,16,38,76.00
2018,10,01,16,39,77.00
2018,10,01,16,40,77.00
2018,10,01,16,41,77.00
2018,10,01,16,42,78.30
2018,10,01,16,43,80.60
2018,10,01,16,44,83.20
2018,10,01,16,45,86.50
2018,10,01,16,46,88.80
2018,10,01,16,47,90.50
2018,10,01,16,48,93.60
2018,10,01,16,49,99.10
2018,10,01,16,50,107.50
2018,10,01,16,51,115.10
2018,10,01,16,52,132.70
2018,10,01,16,53,144.20
2018,10,01,16,54,142.50
2018,10,01,16,55,144.00
2018,10,01,16,56,174.50
2018,10,01,16,57,387.70
2018,10,01,16,58,387.50
2018,10,01,16,59,388.00
2018,10,01,17,00,387.30
2018,10,01,17,01,383.40
2018,10,01,17,02,374.40
2018,10,01,17,03,363.40
2018,10,01,17,04,354.60
2018,10,01,17,05,345.00
2018,10,01,17,06,344.10
2018,10,01,17,07,264.90
2018,10,01,17,08,301.40
2018,10,01,17,09,340.70
2018,10,01,17,10,330.00
2018,10,01,17,11,197.90
2018,10,01,17,12,128.00
2018,10,01,17,13,121.00
2018,10,01,17,14,112.20
2018,10,01,17,15,105.00
2018,10,01,17,16,99.40
2018,10,01,17,17,95.70
2018,10,01,17,18,95.00
2018,10,01,17,19,101.00
2018,10,01,17,20,118.40
2018,10,01,17,21,144.00
2018,10,01,17,22,182.90
2018,10,01,17,23,198.50
2018,10,01,17,24,229.50